Home   Weather   George Town   Past weeks

Flag for Cayman Islands Past Weather in George Town, Cayman Islands — Yesterday and Last 2 Weeks

Now
81 °F

Passing clouds.


Feels Like: 86 °F
Forecast: 80 / 82 °F
Wind: 12 mph from East

Location: Owen Roberts Airportgrand Cayman

Current Time: Apr 30, 2017 at 11:34:46 pm

Latest Report: Apr 30, 2017 at 11:00 pm


Visibility: N/A

Pressure: 29.98 "Hg

Humidity: 84%

Dew Point: 75 °F

Location of George TownLocation

Past Weather in George Town — Graph

°F

George Town Temperature Yesterday

Maximum temperature yesterday: 88 °F (at 10:00 am)
Minimum temperature yesterday: 81 °F (at 6:00 am)
Average temperature yesterday: 85 °F

High & Low Weather Summary for the Past Weeks

 TemperatureHumidityPressure
High88 °F (Apr 27, 11:53 am)100% (Apr 20, 9:00 pm)30.04 "Hg (Apr 20, 9:00 pm)
Low73 °F (Apr 19, 5:00 pm)62% (Apr 17, 11:00 am)29.77 "Hg (Apr 22, 3:00 pm)
Average82 °F80%29.90 "Hg
* Reported Apr 15 10:00 pm — Apr 30 10:00 pm, George Town, Weather by CustomWeather, © 2017

Note: Actual official high and low records may vary slightly from our data, if they occured in-between our weather recording intervals... More about our weather records

Advertising

George Town Weather History for the Previous 24 Hours

Scroll right to see more
 ConditionsComfort  
Time TempWeatherWind HumidityBarometerVisibility
10:00 pm
Sun, Apr 30
81 °FPassing clouds.12 mph89%29.98 "HgN/A
9:00 pm82 °FPassing clouds.15 mph84%29.95 "HgN/A
8:00 pm82 °FPassing clouds.15 mph84%29.95 "HgN/A
7:00 pm82 °FPassing clouds.12 mph84%29.92 "HgN/A
6:00 pm86 °FPassing clouds.13 mph66%29.92 "HgN/A
5:00 pm86 °FPassing clouds.16 mph66%29.92 "HgN/A
4:00 pm86 °FScattered clouds.16 mph75%29.92 "HgN/A
3:00 pm86 °FPassing clouds.13 mph70%29.92 "HgN/A
2:00 pm86 °FScattered clouds.17 mph70%29.92 "HgN/A
1:00 pm86 °FScattered clouds.16 mph70%29.95 "HgN/A
12:00 pm88 °FScattered clouds.16 mph66%29.95 "HgN/A
11:00 am86 °FScattered showers. Scattered clouds.15 mph75%29.98 "HgN/A
10:00 am86 °FPassing clouds.15 mph70%29.98 "HgN/A
9:00 am84 °FPassing clouds.15 mph74%29.95 "HgN/A
8:00 am82 °FPassing clouds.13 mph79%29.95 "HgN/A
7:00 am81 °FPassing clouds.9 mph84%29.95 "HgN/A
6:00 am81 °FScattered clouds.12 mph84%29.95 "HgN/A
Weather by CustomWeather, © 2017

See weather overviewHow to use our weather pages